Orbital Elements at Epoch 2459200.5 (2020-Dec-17.0) TDB
Reference: JPL 17 (heliocentric ecliptic J2000)
Element | Value | Uncertainty (1-sigma) | Units |
e | .06030306286877606 | 6.3368e-08 | |
a | 2.230601831468269 | 1.2973e-08 | au |
q | 2.096089708990031 | 1.3877e-07 | au |
i | 6.690301972618609 | 6.8475e-06 | deg |
node | 6.930930964159318 | 3.7894e-05 | deg |
peri | 191.4170692456706 | 5.5475e-05 | deg |
M | 261.2592765998766 | 4.0725e-05 | deg |
tp | 2459534.253103207765 (2021-Nov-15.75310321) | 0.00013853 | TDB |
period | 1216.834483457362 3.33 | 1.0616e-05 2.907e-08 | d yr |
n | .2958496039470717 | 2.581e-09 | deg/d |
Q | 2.365113953946507 | 1.3756e-08 | au |
|
| | Orbit Determination Parameters
Additional Information
|